Location: Unspecified
(43.3830°N, 0.0000°E)
Time: 13:21:25
(UTC+00:00)

Transit 2A - Pass Details

Date: 21 June 2019
Orbit: 597 x 962 km, 66.7° (Epoch: 24 August)

Event Time Altitude Azimuth Distance (km) Brightness Sun altitude
Exits shadow 01:02:36 34° 233° (SW) 1,536 7.1 -21.7°
Maximum altitude 01:05:28 66° 304° (NW) 1,045 6.7 -21.6°
Drops below altitude 10° 01:11:42 10° 27° (NNE) 2,653 9.9 -21.3°
Sets 01:14:14 0° 30° (NNE) 3,567 10.9 -21.1°
